This is the latest recevied weather packets stored in our database for station/object W7TJC. If no packets are shown the sender has not sent any weather packets the latest 10 day(s).
| Time | Temp. | Humidity | Pressure | Rain* | Wind** | Luminosity | Snow |
|---|---|---|---|---|---|---|---|
| 1777855230 | 25.56° C | 34% | 1011 hPa | 0 mm | - | 14 W/m² | - |
| 1777854926 | 26.11° C | 35% | 1011.1 hPa | 0 mm | - | 15 W/m² | - |
| 1777854623 | 26.11° C | 34% | 1011.2 hPa | 0 mm | - | 14 W/m² | - |
| 1777854320 | 26.11° C | 35% | 1011.2 hPa | 0 mm | - | 15 W/m² | - |
| 1777854018 | 26.11° C | 37% | 1011.1 hPa | 0 mm | - | 16 W/m² | - |
| 1777853715 | 26.11° C | 35% | 1011.1 hPa | 0 mm | - | 16 W/m² | - |
| 1777853411 | 26.11° C | 35% | 1011.4 hPa | 0 mm | - | 20 W/m² | - |
| 1777853109 | 26.11° C | 35% | 1011.3 hPa | 0 mm | - | 18 W/m² | - |
| 1777852806 | 26.11° C | 35% | 1011.4 hPa | 0 mm | - | 19 W/m² | - |
| 1777852504 | 26.11° C | 34% | 1011.5 hPa | 0 mm | - | 20 W/m² | - |
| 1777852200 | 26.11° C | 37% | 1011.5 hPa | 0 mm | - | 19 W/m² | - |
| 1777851898 | 26.11° C | 36% | 1011.5 hPa | 0 mm | - | 20 W/m² | - |
| 1777851596 | 26.11° C | 36% | 1011.6 hPa | 0 mm | - | 20 W/m² | - |
| 1777851292 | 26.11° C | 36% | 1011.7 hPa | 0 mm | - | 20 W/m² | - |
| 1777850988 | 26.11° C | 35% | 1011.5 hPa | 0 mm | - | 21 W/m² | - |
| 1777850685 | 26.11° C | 35% | 1011.6 hPa | 0 mm | - | 21 W/m² | - |
| 1777850383 | 26.11° C | 36% | 1011.7 hPa | 0 mm | - | 20 W/m² | - |
| 1777850081 | 26.11° C | 35% | 1011.9 hPa | 0 mm | - | 21 W/m² | - |
| 1777849777 | 26.11° C | 36% | 1011.9 hPa | 0 mm | - | 20 W/m² | - |
| 1777849474 | 26.11° C | 36% | 1012 hPa | 0 mm | - | 21 W/m² | - |
| 1777849171 | 26.11° C | 36% | 1012.2 hPa | 0 mm | - | 20 W/m² | - |
| 1777848868 | 26.11° C | 37% | 1012.1 hPa | 0 mm | - | 21 W/m² | - |
| 1777848564 | 26.11° C | 37% | 1012.3 hPa | 0 mm | - | 23 W/m² | - |
| 1777848261 | 26.11° C | 35% | 1012.4 hPa | 0 mm | - | 26 W/m² | - |
| 1777847959 | 26.11° C | 36% | 1012.3 hPa | 0 mm | - | 22 W/m² | - |
* Rain latest hour (hover to see other rain measurements)
** Current wind speed in m/s (hover to see current wind gust speed)